Location: Il Ritiro
(43.4167°N, 13.1333°E)
Time: 16:22:02
(UTC+00:00)

Thor Agena Rocket - Pass Details

Date: 05 July 2020
Orbit: 759 x 808 km, 99.0° (Epoch: 10 August)

Event Time Altitude Azimuth Distance (km) Brightness Sun altitude
Rises 22:24:11 0° 9° (N) 3,264 7.9 -23.0°
Reaches altitude 10° 22:26:33 10° 5° (N) 2,326 7.0 -23.1°
Maximum altitude 22:31:30 52° 290° (WNW) 946 4.1 -23.3°
Enters shadow 22:33:19 35° 235° (SW) 1,221 4.3 -23.3°
